KF5CFW Weather Reports


time (UTC)temp
C
wind
direction
speed
KPH
gust
KPH
rain 1hr
cm
rain 24hr
cm
rain mn
cm
humidity
%
barometer
mb
20260901131525 27 249 0.0 1.6 0.00 0.00 0.00 49 1015.6
20260901130025 26 255 0.0 0.0 0.00 0.00 0.00 47 1015.4
20260901124520 26 253 0.0 0.0 0.00 0.00 0.00 47 1015.2
20260901123016 26 255 0.0 0.0 0.00 0.00 0.00 49 1015.0
20260901121514 26 253 0.0 0.0 0.00 0.00 0.00 51 1014.8
20260901120013 26 255 0.0 0.0 0.00 0.00 0.00 51 1014.6
20260901114511 26 253 0.0 0.0 0.00 0.00 0.00 50 1014.6
20260901113010 26 253 0.0 0.0 0.00 0.00 0.00 54 1014.6
20260901111507 26 253 0.0 0.0 0.00 0.00 0.00 57 1014.4
20260901110005 27 255 0.0 0.0 0.00 0.00 0.00 59 1014.1
20260901104506 27 255 0.0 0.0 0.00 0.00 0.00 60 1014.2
20260901103001 27 255 0.0 0.0 0.00 0.00 0.00 60 1014.1
20260901101605 27 255 0.0 0.0 0.00 0.00 0.00 60 1014.1
20260901100104 27 255 0.0 0.0 0.00 0.00 0.00 60 1014.1
20260901094556 28 155 0.0 0.0 0.00 0.00 0.00 60 1014.1
20260901093054 28 72 0.0 0.0 0.00 0.00 0.00 60 1014.2
20260901091553 28 233 0.0 1.6 0.00 0.00 0.00 60 1014.2
20260901090053 28 190 0.0 1.6 0.00 0.00 0.00 59 1014.1
20260901084552 28 145 0.0 1.6 0.00 0.00 0.00 59 1014.0
20260901083048 29 149 0.0 1.6 0.00 0.00 0.00 58 1014.1
20260901081546 29 150 0.0 1.6 0.00 0.00 0.00 58 1014.1
20260901080045 30 152 0.0 1.6 0.00 0.00 0.00 57 1014.0
20260901074547 30 158 0.0 1.6 0.00 0.00 0.00 55 1014.1
20260901073044 30 158 0.0 1.6 0.00 0.00 0.00 54 1014.0
20260901071541 30 155 0.0 0.0 0.00 0.00 0.00 53 1013.9
20260901070049 30 136 0.0 1.6 0.00 0.00 0.00 52 1013.7
20260901064537 30 155 0.0 1.6 0.00 0.00 0.00 52 1013.5
20260901063035 30 140 0.0 1.6 0.00 0.00 0.00 51 1013.5
20260901061531 30 140 0.0 0.0 0.00 0.00 0.00 50 1013.5
20260901060029 30 139 0.0 1.6 0.00 0.00 0.00 49 1013.2
20260901054525 30 135 0.0 0.0 0.00 0.00 0.00 49 1013.1
20260901053022 30 136 0.0 0.0 0.00 0.00 0.00 48 1013.0
20260901051520 30 136 0.0 0.0 0.00 0.00 0.00 47 1012.8
20260901050017 30 135 0.0 0.0 0.00 0.00 0.00 46 1012.8
20260901044535 30 135 0.0 0.0 0.00 0.00 0.00 46 1012.7
20260901043016 30 136 0.0 0.0 0.00 0.00 0.00 46 1012.8
20260901041525 30 136 0.0 0.0 0.00 0.00 0.00 45 1012.7
20260901040015 30 135 0.0 0.0 0.00 0.00 0.00 44 1012.8
20260901034522 30 135 0.0 0.0 0.00 0.00 0.00 43 1012.9
20260901033036 31 136 0.0 0.0 0.00 0.00 0.00 42 1012.8
20260901031513 31 136 0.0 0.0 0.00 0.00 0.00 41 1012.7
20260901030024 31 136 0.0 0.0 0.00 0.00 0.00 41 1012.5
20260901024520 31 136 0.0 0.0 0.00 0.00 0.00 39 1012.4
20260901023012 32 136 0.0 0.0 0.00 0.00 0.00 39 1012.2
20260901021518 32 136 0.0 0.0 0.00 0.00 0.00 39 1012.1
20260901020015 32 135 0.0 0.0 0.00 0.00 0.00 39 1011.9
20260901014510 33 135 0.0 0.0 0.00 0.00 0.00 38 1011.8
20260901013012 33 136 0.0 0.0 0.00 0.00 0.00 37 1011.7
20260901011510 34 136 0.0 0.0 0.00 0.00 0.00 36 1011.6
20260901010016 34 136 0.0 0.0 0.00 0.00 0.00 35 1011.5
20260901004547 35 136 0.0 0.0 0.00 0.00 0.00 34 1011.4
20260901003049 35 135 0.0 0.0 0.00 0.00 0.00 34 1011.4
20260901001547 36 118 0.0 1.6 0.00 0.00 0.00 33 1011.4
20260901000045 36 146 0.0 0.0 0.00 0.00 0.00 32 1011.4
20260831234553 36 158 0.0 1.6 0.00 0.00 0.00 31 1011.4
20260831233044 37 132 0.0 1.6 0.00 0.00 0.00 31 1011.5
20260831231543 37 134 0.0 1.6 0.00 0.00 0.00 30 1011.4
20260831230042 38 70 0.0 1.6 0.00 0.00 0.00 30 1011.4
20260831224543 39 144 0.0 1.6 0.00 0.00 0.00 29 1011.5
20260831223046 40 143 0.0 3.2 0.00 0.00 0.00 28 1011.5
20260831221554 40 183 0.0 1.6 0.00 0.00 0.00 28 1011.7
20260831220036 40 76 0.0 3.2 0.00 0.00 0.00 27 1011.8
20260831214535 40 170 0.0 3.2 0.00 0.00 0.00 28 1011.9
20260831213033 40 153 0.0 1.6 0.00 0.00 0.00 29 1012.1
20260831211537 39 151 0.0 1.6 0.00 0.00 0.00 29 1012.2
20260831210031 40 127 0.0 3.2 0.00 0.00 0.00 28 1012.4
20260831204528 40 91 0.0 1.6 0.00 0.00 0.00 28 1012.5
20260831203038 39 198 0.0 4.8 0.00 0.00 0.00 29 1012.9
20260831201524 38 62 0.0 6.4 0.00 0.00 0.00 30 1013.0
20260831200027 39 54 0.0 3.2 0.00 0.00 0.00 31 1013.1
20260831194523 38 143 0.0 1.6 0.00 0.00 0.00 33 1013.3
20260831193020 38 153 0.0 1.6 0.00 0.00 0.00 32 1013.6
20260831191522 37 66 0.0 3.2 0.00 0.00 0.00 33 1013.7
20260831190022 38 130 0.0 3.2 0.00 0.00 0.00 33 1013.8
20260831184519 38 135 0.0 3.2 0.00 0.00 0.00 33 1014.0
20260831183018 39 112 0.0 3.2 0.00 0.00 0.00 33 1014.1
20260831181515 39 131 0.0 1.6 0.00 0.00 0.00 33 1014.4
20260831180011 38 158 0.0 4.8 0.00 0.00 0.00 33 1014.6
20260831174509 38 155 0.0 3.2 0.00 0.00 0.00 34 1015.1
20260831173006 38 134 0.0 4.8 0.00 0.00 0.00 34 1015.2
20260831171504 37 148 0.0 1.6 0.00 0.00 0.00 36 1015.4
20260831170100 37 186 0.0 3.2 0.00 0.00 0.00 36 1015.5
20260831164556 37 217 0.0 1.6 0.00 0.00 0.00 38 1015.4
20260831163053 36 167 0.0 3.2 0.00 0.00 0.00 38 1015.5
20260831161549 35 193 0.0 1.6 0.00 0.00 0.00 41 1015.5
20260831160045 34 225 0.0 1.6 0.00 0.00 0.00 43 1015.5
20260831154544 33 217 0.0 1.6 0.00 0.00 0.00 46 1015.5
20260831153039 32 222 0.0 1.6 0.00 0.00 0.00 49 1015.5
20260831151533 32 254 0.0 1.6 0.00 0.00 0.00 52 1015.5
20260831150030 31 253 0.0 1.6 0.00 0.00 0.00 54 1015.4
20260831144526 30 266 0.0 1.6 0.00 0.00 0.00 57 1015.3
20260831143027 30 211 0.0 1.6 0.00 0.00 0.00 59 1015.2
20260831141525 28 246 0.0 1.6 0.00 0.00 0.00 59 1015.4
20260831140027 28 318 0.0 1.6 0.00 0.00 0.00 57 1015.4
20260831134523 27 164 0.0 1.6 0.00 0.00 0.00 54 1015.2
20260831133031 27 208 0.0 1.6 0.00 0.00 0.00 49 1015.1